Location: Delettes
(50.6178°N, 2.2123°E)
Time: 02:26:08
(UTC+00:00)

Cosmos 1933 Rocket - Pass Details

Date: 27 February 2020
Orbit: 606 x 630 km, 82.5° (Epoch: 03 April)

Event Time Altitude Azimuth Distance (km) Brightness Sun altitude
Rises 17:55:44 0° 168° (SSE) 2,889 6.9 -5.1°
Reaches altitude 10° 17:58:03 10° 161° (SSE) 1,984 6.0 -5.5°
Maximum altitude 18:02:09 40° 92° (E) 916 4.0 -6.2°
Drops below altitude 10° 18:06:16 10° 23° (NNE) 1,985 5.9 -6.8°
Sets 18:08:34 0° 16° (NNE) 2,892 6.8 -7.2°
